1521878401.0,51335,10.5,72012.8,1.39,-31.45,-32.23,0,*74
1521878402.23,51336,10.5,72010.3,1.43,-31.29,-32.01,0,*70
1521878403.51,51337,10.5,72012.8,1.43,-31.95,-32.97,0,*79
1521878404.75,51338,10.5,72012.0,1.39,-31.95,-32.69,0,*7A
1521878405.99,51339,10.5,72014.8,1.39,-31.61,-32.51,0,*7B
1521878407.23,51340,10.5,72014.5,1.39,-31.85,-32.69,0,*74
1521878408.5,51341,10.5,72014.5,1.43,-31.61,-32.51,0,*79
1521878409.75,51342,10.5,72012.8,1.43,-31.57,-32.35,0,*7D
1521878410.99,51343,10.5,72008.5,1.39,-31.95,-32.69,0,*76
1521878412.23,51344,10.5,72012.5,1.43,-31.79,-32.69,0,*7E
1521878413.51,51345,10.5,72008.3,1.43,-31.61,-32.45,0,*78
1521878414.75,51346,10.5,72010.5,1.43,-30.67,-31.45,0,*7F
1521878416.03,51347,10.5,72014.5,1.43,-30.89,-31.61,0,*78
1521878417.31,51348,10.5,72010.3,1.43,-30.73,-31.39,0,*7F
1521878418.55,51349,10.5,72014.5,1.43,-31.45,-32.35,0,*75
1521878419.84,51350,10.5,72010.8,1.47,-31.85,-32.75,0,*71
1521878421.09,51351,10.5,72012.0,1.45,-32.29,-33.27,0,*71
1521878422.35,51352,10.5,72012.8,1.43,-31.91,-32.69,0,*7F
1521878423.59,51353,10.5,72014.5,1.45,-31.61,-32.35,0,*7E
1521878424.82,51354,10.5,72012.5,1.45,-32.45,-33.21,0,*78
1521878426.05,51355,10.5,72012.8,1.45,-32.69,-33.61,0,*73
1521878427.3,51356,10.5,72010.5,1.43,-32.29,-33.15,0,*71
1521878428.51,51357,10.5,72012.3,1.39,-31.45,-32.39,0,*7B
1521878429.77,51358,10.5,72014.8,1.43,-31.39,-32.01,0,*79
1521878431.02,51359,10.5,72014.8,1.43,-31.39,-32.01,0,*78
1521878432.27,51360,10.5,72010.0,1.43,-31.39,-32.35,0,*75
1521878433.5,51361,10.5,72012.0,1.45,-31.79,-32.63,0,*75
1521878434.74,51362,10.5,72010.3,1.45,-31.61,-32.51,0,*7E
1521878435.95,51363,10.56,72014.8,1.45,-32.13,-33.21,0,*7F
1521878437.18,51364,10.5,72012.5,1.45,-32.45,-33.21,0,*7B
1521878438.42,51365,10.5,72012.8,1.45,-31.91,-32.69,0,*7D
1521878439.7,51366,10.5,72014.3,1.43,-31.57,-32.45,0,*7C
1521878440.93,51367,10.5,72010.8,1.45,-30.83,-31.57,0,*73
1521878442.16,51368,10.5,72008.5,1.47,-30.67,-31.33,0,*76
1521878443.4,51369,10.5,72012.8,1.45,-30.23,-30.89,0,*75
1521878444.63,51370,10.5,72010.8,1.49,-30.11,-30.77,0,*71
1521878445.88,51371,10.5,72012.5,1.47,-31.05,-31.85,0,*76
1521878447.14,51372,10.5,72012.5,1.51,-30.73,-31.67,0,*7E
1521878448.36,51373,10.5,72012.3,1.49,-31.01,-31.85,0,*7E
1521878449.64,51374,10.5,72014.3,1.51,-30.77,-31.61,0,*7A
1521878450.87,51375,10.5,72012.3,1.49,-31.51,-32.39,0,*79
1521878452.16,51376,10.5,72014.0,1.51,-31.11,-31.91,0,*76
1521878453.4,51377,10.5,72012.0,1.51,-32.35,-33.09,0,*71
1521878454.69,51378,10.5,72012.3,1.51,-32.19,-33.09,0,*70
1521878455.97,51379,10.5,72012.5,1.51,-31.85,-32.75,0,*7D
1521878457.2,51380,10.5,72010.0,1.49,-31.51,-32.23,0,*78
1521878458.43,51381,10.5,72010.5,1.49,-32.23,-33.09,0,*76
1521878459.68,51382,10.5,72010.5,1.51,-31.51,-32.35,0,*74
1521878460.96,51383,10.5,72012.8,1.51,-30.73,-31.51,0,*75
1521878462.19,51384,10.5,72014.0,1.51,-30.83,-31.67,0,*78
1521878463.45,51385,10.56,72014.0,1.51,-31.61,-32.39,0,*7C
1521878464.69,51386,10.5,72014.3,1.51,-32.01,-32.91,0,*78
1521878465.91,51387,10.56,72014.5,1.51,-31.67,-32.57,0,*70
1521878467.16,51388,10.56,72014.0,1.51,-32.19,-33.03,0,*75
1521878468.42,51389,10.5,72014.0,1.51,-31.61,-32.35,0,*7C
1521878469.68,51390,10.5,72014.5,1.51,-30.83,-31.61,0,*7B
1521878470.91,51391,10.56,72014.8,1.55,-31.05,-31.79,0,*78
1521878472.11,51392,10.56,72014.5,1.53,-31.45,-32.35,0,*72
1521878473.37,51393,10.56,72018.8,1.51,-31.79,-32.75,0,*7A
1521878474.58,51394,10.56,72014.3,1.53,-32.13,-33.03,0,*70
1521878475.8,51395,10.5,72014.3,1.53,-32.13,-32.97,0,*7D
1521878477.01,51396,10.56,72012.0,1.53,-31.45,-32.35,0,*76
1521878478.25,51397,10.56,72014.8,1.53,-31.61,-32.51,0,*73
1521878479.5,51398,10.56,72016.0,1.51,-31.17,-32.07,0,*7C
1521878480.7,51399,10.5,72014.5,1.53,-31.05,-31.79,0,*76
1521878481.96,51400,10.56,72014.5,1.53,-31.61,-32.45,0,*7F
1521878483.17,51401,10.56,72014.5,1.53,-31.45,-32.35,0,*7F
1521878484.42,51402,10.56,72012.8,1.53,-31.73,-32.63,0,*7A
1521878485.66,51403,10.56,72012.0,1.55,-31.45,-32.35,0,*7B
1521878486.91,51404,10.56,72014.5,1.53,-30.95,-31.61,0,*74
1521878488.14,51405,10.56,72012.0,1.55,-30.23,-31.05,0,*7C
1521878489.34,51406,10.56,72012.8,1.57,-30.27,-31.17,0,*7A
1521878490.57,51407,10.56,72014.5,1.57,-31.23,-32.13,0,*79
1521878491.85,51408,10.56,72012.5,1.59,-31.73,-32.63,0,*7A
1521878493.08,51409,10.56,72012.8,1.57,-31.51,-32.39,0,*7A
1521878494.31,51410,10.56,72012.8,1.57,-31.23,-32.23,0,*7C
1521878495.54,51411,10.56,72016.8,1.57,-31.51,-32.39,0,*73
1521878496.78,51412,10.56,72012.8,1.57,-31.51,-32.29,0,*71
1521878498.03,51413,10.56,72012.3,1.57,-31.51,-32.45,0,*7A
1521878499.28,51414,10.56,72016.8,1.59,-30.89,-31.79,0,*7B
1521878500.54,51415,10.56,72012.8,1.59,-30.83,-31.73,0,*7A
1521878501.74,51416,10.56,72014.0,1.57,-31.67,-32.39,0,*71
1521878502.97,51417,10.56,72014.5,1.59,-31.33,-32.23,0,*74
1521878504.25,51418,10.56,72016.5,1.59,-31.73,-32.63,0,*7B
1521878505.45,51419,10.56,72012.3,1.57,-31.33,-32.39,0,*7F
1521878506.67,51420,10.56,72014.5,1.59,-31.01,-31.67,0,*72
1521878507.93,51421,10.56,72012.5,1.59,-31.39,-32.39,0,*70
1521878509.21,51422,10.56,72016.5,1.59,-31.23,-32.29,0,*79
1521878510.45,51423,10.56,72012.8,1.61,-31.61,-32.51,0,*7A
1521878511.67,51424,10.56,72014.8,1.61,-31.01,-31.73,0,*78
1521878512.91,51425,10.56,72014.3,1.65,-30.73,-31.57,0,*7F
1521878514.15,51426,10.56,72014.3,1.65,-30.61,-31.39,0,*77
1521878515.34,51427,10.56,72012.3,1.65,-31.05,-31.67,0,*7E
1521878516.56,51428,10.56,72016.8,1.65,-30.89,-31.67,0,*74
1521878517.81,51429,10.56,72012.0,1.67,-31.05,-31.95,0,*7F
1521878519.08,51430,10.56,72014.5,1.67,-30.77,-31.61,0,*78
1521878520.34,51431,10.56,72016.5,1.67,-31.79,-32.79,0,*7C
1521878521.61,51432,10.56,72016.0,1.67,-32.29,-33.09,0,*7F
1521878522.86,51433,10.56,72016.5,1.67,-31.23,-32.13,0,*7D
1521878524.11,51434,10.56,72012.3,1.67,-32.45,-33.37,0,*7E
1521878525.34,51435,10.56,72018.5,1.61,-32.69,-33.49,0,*7E
1521878526.55,51436,10.56,72014.0,1.61,-32.01,-32.91,0,*77
1521878527.77,51437,10.56,72014.8,1.65,-32.13,-33.09,0,*71
1521878529.0,51438,10.56,72018.5,1.61,-31.17,-32.07,0,*72
1521878530.25,51439,10.56,72016.3,1.65,-30.61,-31.39,0,*79
1521878531.47,51440,10.56,72014.5,1.65,-30.33,-31.11,0,*7A
1521878532.74,51441,10.56,72016.0,1.67,-30.61,-31.57,0,*7C
1521878534.01,51442,10.56,72016.5,1.67,-30.89,-31.85,0,*76
1521878535.24,51443,10.56,72016.3,1.67,-31.79,-32.69,0,*78
1521878536.49,51444,10.56,72016.3,1.67,-31.29,-32.19,0,*7D
1521878537.72,51445,10.56,72018.5,1.69,-31.23,-32.13,0,*72
1521878538.91,51446,10.56,72014.5,1.69,-31.33,-32.13,0,*70
1521878540.13,51447,10.56,72014.3,1.69,-32.29,-33.21,0,*79
1521878541.4,51448,10.56,72016.3,1.67,-32.29,-33.09,0,*72
1521878542.66,51449,10.56,72014.0,1.69,-31.61,-32.75,0,*78
1521878543.92,51450,10.56,72014.5,1.67,-31.61,-32.51,0,*78
1521878545.19,51451,10.56,72016.0,1.67,-31.57,-32.63,0,*7D
1521878546.44,51452,10.56,72014.3,1.67,-31.11,-32.13,0,*7B
1521878547.67,51453,10.56,72012.8,1.69,-31.23,-32.13,0,*75
1521878548.95,51454,10.56,72016.0,1.67,-31.57,-32.63,0,*78
1521878550.14,51455,10.56,72014.3,1.69,-31.05,-32.13,0,*77
1521878551.37,51456,10.56,72012.8,1.69,-31.17,-32.07,0,*72
1521878552.61,51457,10.56,72016.5,1.69,-30.55,-31.39,0,*7A
1521878553.84,51458,10.56,72014.8,1.69,-31.57,-32.39,0,*75
1521878555.09,51459,10.56,72014.0,1.71,-30.67,-31.57,0,*74
1521878556.35,51460,10.56,72016.5,1.73,-31.29,-32.07,0,*71
1521878557.6,51461,10.56,72016.3,1.71,-31.51,-32.39,0,*70
1521878558.85,51462,10.56,72018.3,1.71,-31.23,-32.13,0,*7E
1521878560.08,51463,10.56,72016.3,1.71,-32.13,-33.15,0,*78
1521878561.36,51464,10.56,72018.5,1.71,-31.91,-32.79,0,*7D
1521878562.61,51465,10.56,72014.3,1.71,-31.51,-32.39,0,*74
1521878563.89,51466,10.56,72016.0,1.71,-32.45,-33.49,0,*77
1521878565.14,51467,10.56,72016.3,1.71,-31.23,-32.13,0,*7B
1521878566.4,51468,10.56,72016.0,1.71,-31.57,-32.39,0,*7F
1521878567.67,51469,10.56,72016.0,1.71,-31.91,-32.97,0,*70
1521878568.93,51470,10.56,72018.8,1.71,-32.39,-33.31,0,*74
1521878570.18,51471,10.56,72018.5,1.71,-32.07,-33.03,0,*79
1521878571.43,51472,10.56,72018.5,1.71,-31.61,-32.57,0,*79
1521878572.68,51473,10.56,72016.0,1.69,-31.61,-32.63,0,*76
1521878573.93,51474,10.56,72018.8,1.67,-31.57,-32.35,0,*79
1521878575.16,51475,10.56,72018.0,1.69,-31.23,-32.13,0,*71
1521878576.41,51476,10.56,72018.5,1.71,-31.05,-31.95,0,*72
1521878577.69,51477,10.56,72016.5,1.71,-31.39,-32.29,0,*78
1521878578.94,51478,10.56,72016.3,1.71,-31.57,-32.39,0,*7E
1521878580.17,51479,10.56,72012.8,1.71,-32.13,-33.15,0,*73
1521878581.39,51480,10.56,72016.0,1.73,-32.91,-33.83,0,*72
1521878582.61,51481,10.56,72016.8,1.69,-31.23,-32.13,0,*7A
1521878583.84,51482,10.56,72014.3,1.69,-31.17,-32.07,0,*7B
1521878585.09,51483,10.56,72018.0,1.69,-30.89,-31.91,0,*70
1521878586.34,51484,10.56,72018.8,1.71,-31.17,-32.07,0,*74
1521878587.59,51485,10.56,72018.5,1.73,-30.51,-31.33,0,*70
1521878588.84,51486,10.63,72018.5,1.71,-31.05,-32.07,0,*75
1521878590.08,51487,10.56,72016.8,1.73,-31.45,-32.51,0,*71
1521878591.3,51488,10.56,72016.0,1.73,-30.45,-31.29,0,*73
1521878592.53,51489,10.56,72020.0,1.75,-30.61,-31.45,0,*78
1521878593.81,51490,10.56,72016.5,1.77,-30.39,-31.23,0,*7F
1521878595.09,51491,10.56,72014.5,1.77,-31.39,-32.29,0,*76
1521878596.34,51492,10.56,72018.0,1.77,-32.19,-33.03,0,*7D
1521878597.62,51493,10.56,72018.0,1.77,-31.39,-32.45,0,*7E
1521878598.85,51494,10.63,72020.0,1.75,-31.39,-32.35,0,*7C
1521878600.08,51495,10.56,72020.8,1.75,-32.35,-33.31,0,*77
1521878601.35,51496,10.56,72018.3,1.77,-31.39,-32.29,0,*71
1521878602.59,51497,10.56,72018.3,1.75,-32.01,-33.09,0,*79
1521878603.82,51498,10.56,72018.0,1.75,-32.51,-33.49,0,*77
1521878605.07,51499,10.63,72020.5,1.75,-32.07,-32.97,0,*77
1521878606.3,51500,10.63,72016.5,1.77,-31.05,-32.01,0,*7A
1521878607.53,51501,10.56,72018.5,1.75,-31.85,-32.91,0,*78
1521878608.79,51502,10.63,72020.3,1.75,-30.77,-31.51,0,*78
1521878610.07,51503,10.56,72016.0,1.77,-30.95,-31.95,0,*7F
1521878611.33,51504,10.63,72020.3,1.75,-30.77,-31.51,0,*7E
1521878612.61,51505,10.63,72022.8,1.77,-30.89,-31.85,0,*75
1521878613.9,51506,10.56,72014.5,1.77,-31.23,-31.95,0,*76
1521878615.18,51507,10.63,72016.8,1.77,-30.89,-31.95,0,*76
1521878616.41,51508,10.56,72018.8,1.77,-32.51,-33.55,0,*70
1521878617.67,51509,10.56,72014.3,1.77,-31.85,-32.91,0,*72
1521878618.93,51510,10.63,72018.0,1.77,-30.77,-31.79,0,*73
1521878620.18,51511,10.56,72018.5,1.79,-30.61,-31.51,0,*71
1521878621.45,51512,10.63,72016.5,1.79,-31.85,-32.85,0,*73
1521878622.68,51513,10.63,72022.0,1.81,-31.45,-32.39,0,*7E
1521878623.93,51514,10.56,72016.0,1.79,-30.89,-31.85,0,*7B
1521878625.16,51515,10.63,72016.0,1.79,-31.23,-32.01,0,*74
1521878626.42,51516,10.56,72016.3,1.79,-30.77,-31.51,0,*71
1521878627.7,51517,10.56,72016.0,1.81,-31.23,-32.07,0,*77
1521878628.95,51518,10.63,72018.0,1.81,-31.39,-32.57,0,*76
1521878630.23,51519,10.63,72018.8,1.81,-31.23,-32.19,0,*76
1521878631.48,51520,10.63,72016.8,1.79,-30.89,-31.85,0,*7C
1521878632.76,51521,10.56,72018.3,1.81,-30.39,-31.23,0,*7D
1521878634.02,51522,10.56,72016.0,1.81,-30.55,-31.61,0,*72
1521878635.29,51523,10.63,72022.5,1.81,-30.55,-31.73,0,*70
1521878636.54,51524,10.56,72014.5,1.85,-30.83,-31.91,0,*74
1521878637.79,51525,10.56,72018.5,1.85,-30.83,-31.85,0,*70
1521878639.07,51526,10.63,72020.0,1.85,-31.73,-32.79,0,*7D
1521878640.33,51527,10.63,72020.8,1.83,-31.73,-32.63,0,*71
1521878641.59,51528,10.63,72022.8,1.83,-31.73,-32.75,0,*79
1521878642.85,51529,10.63,72018.0,1.83,-31.85,-32.75,0,*71
1521878644.07,51530,10.63,72018.3,1.83,-31.39,-32.57,0,*7E
1521878645.29,51531,10.63,72018.0,1.83,-31.67,-32.75,0,*74
1521878646.52,51532,10.56,72012.8,1.83,-31.39,-32.39,0,*74
1521878647.72,51533,10.63,72016.8,1.83,-31.29,-32.23,0,*7F
1521878648.92,51534,10.56,72018.3,1.83,-31.01,-32.01,0,*72
1521878650.12,51535,10.63,72016.8,1.83,-30.45,-31.29,0,*7B
1521878651.38,51536,10.63,72020.0,1.83,-31.11,-32.07,0,*77
1521878652.6,51537,10.63,72022.8,1.85,-31.33,-32.23,0,*76
1521878653.83,51538,10.56,72012.5,1.83,-31.33,-32.19,0,*76
1521878655.11,51539,10.63,72018.5,1.85,-31.73,-32.75,0,*7F
1521878656.35,51540,10.63,72016.0,1.83,-31.57,-32.51,0,*77
1521878657.63,51541,10.63,72020.8,1.85,-31.73,-32.75,0,*70
1521878658.83,51542,10.63,72016.3,1.83,-31.33,-32.23,0,*72
1521878660.08,51543,10.63,72022.0,1.85,-31.17,-32.07,0,*75
1521878661.29,51544,10.63,72016.8,1.83,-31.29,-32.23,0,*7F
1521878662.52,51545,10.63,72016.5,1.83,-31.29,-32.07,0,*78
1521878663.77,51546,10.63,72020.0,1.85,-31.51,-32.51,0,*71
1521878665.02,51547,10.63,72020.8,1.85,-31.17,-32.07,0,*71
1521878666.25,51548,10.63,72018.0,1.85,-31.33,-32.35,0,*79
1521878667.47,51549,10.63,72018.5,1.83,-31.39,-32.35,0,*74
1521878668.72,51550,10.63,72018.5,1.85,-31.39,-32.51,0,*78
1521878670.0,51551,10.63,72016.0,1.85,-32.07,-33.09,0,*7B
1521878671.26,51552,10.63,72016.8,1.83,-31.73,-32.75,0,*74
1521878672.52,51553,10.63,72020.8,1.85,-31.91,-32.91,0,*75
1521878673.74,51554,10.63,72016.0,1.83,-32.19,-33.15,0,*7A
1521878674.97,51555,10.63,72018.5,1.83,-32.57,-33.73,0,*71
1521878676.22,51556,10.63,72018.8,1.83,-32.63,-33.61,0,*76
1521878677.44,51557,10.63,72016.8,1.83,-32.23,-33.31,0,*76
1521878678.69,51558,10.63,72022.5,1.81,-32.29,-33.37,0,*77
1521878679.92,51559,10.63,72018.3,1.79,-31.85,-33.03,0,*73
1521878681.13,51560,10.63,72020.0,1.79,-31.29,-32.35,0,*7B
1521878682.36,51561,10.63,72022.0,1.79,-31.39,-32.51,0,*79
1521878683.59,51562,10.63,72016.5,1.79,-30.77,-31.67,0,*77
1521878684.79,51563,10.63,72016.5,1.79,-32.51,-33.55,0,*73
1521878686.02,51564,10.63,72020.3,1.81,-32.23,-33.37,0,*72
1521878687.27,51565,10.63,72020.5,1.79,-32.29,-33.27,0,*7F
1521878688.51,51566,10.63,72020.0,1.79,-31.85,-32.91,0,*75
1521878689.74,51567,10.63,72016.3,1.79,-32.01,-33.09,0,*7B
1521878690.95,51568,10.63,72022.3,1.79,-31.29,-32.35,0,*73
1521878692.2,51569,10.63,72018.0,1.79,-30.77,-31.85,0,*70
1521878693.44,51570,10.63,72018.3,1.79,-31.29,-32.19,0,*74
1521878694.68,51571,10.63,72022.3,1.81,-30.73,-31.79,0,*79
1521878695.91,51572,10.63,72022.3,1.79,-30.55,-31.45,0,*76
1521878697.17,51573,10.63,72016.8,1.81,-32.07,-33.03,0,*75
1521878698.45,51574,10.63,72016.8,1.81,-31.73,-32.85,0,*7D
1521878699.72,51575,10.63,72016.3,1.81,-31.91,-32.97,0,*73
1521878700.96,51576,10.63,72022.5,1.79,-31.61,-32.69,0,*79
1521878702.19,51577,10.63,72016.5,1.79,-32.35,-33.43,0,*73
1521878703.44,51578,10.63,72020.0,1.79,-32.63,-33.77,0,*78
1521878704.72,51579,10.63,72020.8,1.77,-32.63,-33.61,0,*70
1521878705.97,51580,10.63,72020.5,1.75,-31.91,-32.97,0,*72
1521878707.2,51581,10.63,72018.5,1.75,-32.57,-33.77,0,*75
1521878708.43,51582,10.63,72022.8,1.75,-32.19,-33.15,0,*78
1521878709.68,51583,10.63,72020.3,1.75,-31.85,-32.97,0,*74
1521878710.88,51584,10.63,72020.8,1.75,-32.23,-33.15,0,*77
1521878712.14,51585,10.63,72016.8,1.75,-32.75,-33.89,0,*70
1521878713.37,51586,10.63,72018.3,1.75,-32.07,-33.15,0,*73
1521878714.62,51587,10.63,72020.8,1.73,-32.35,-33.43,0,*76
1521878715.9,51588,10.63,72020.5,1.73,-31.85,-32.79,0,*79
1521878717.13,51589,10.63,72016.0,1.73,-31.67,-32.69,0,*75
1521878718.39,51590,10.63,72020.3,1.73,-31.57,-32.51,0,*75
1521878719.61,51591,10.63,72020.5,1.71,-32.13,-33.15,0,*74
1521878720.86,51592,10.63,72018.8,1.73,-31.91,-32.91,0,*71
1521878722.12,51593,10.63,72018.0,1.71,-31.39,-32.39,0,*72
1521878723.39,51594,10.63,72022.8,1.73,-31.91,-33.09,0,*77
1521878724.64,51595,10.63,72018.5,1.71,-32.45,-33.55,0,*77
1521878725.89,51596,10.63,72018.0,1.73,-32.69,-33.61,0,*7F
1521878727.17,51597,10.63,72020.5,1.71,-32.79,-33.89,0,*7B
1521878728.43,51598,10.63,72020.8,1.69,-31.91,-32.79,0,*76
1521878729.67,51599,10.63,72022.3,1.69,-30.51,-31.57,0,*75
1521878730.94,51600,10.63,72020.0,1.73,-30.61,-31.57,0,*7E
1521878732.19,51601,10.63,72018.5,1.71,-30.83,-31.91,0,*7B
1521878733.44,51602,10.63,72018.5,1.73,-31.67,-32.75,0,*78
1521878734.72,51603,10.63,72016.5,1.71,-32.29,-33.31,0,*73
1521878735.97,51604,10.63,72020.0,1.73,-31.51,-32.51,0,*7D
1521878737.21,51605,10.63,72020.0,1.73,-31.51,-32.57,0,*7A
1521878738.49,51606,10.63,72020.8,1.73,-32.19,-33.27,0,*70
1521878739.77,51607,10.63,72016.5,1.71,-32.63,-33.89,0,*7A
1521878741.05,51608,10.63,72018.0,1.71,-31.91,-32.85,0,*76
1521878742.3,51609,10.63,72018.5,1.71,-31.33,-32.29,0,*79
1521878743.55,51610,10.63,72022.5,1.71,-31.79,-32.97,0,*7A
1521878744.78,51611,10.63,72018.5,1.73,-31.45,-32.39,0,*72
1521878746.0,51612,10.63,72020.5,1.73,-31.17,-32.23,0,*7D
1521878747.29,51613,10.63,72018.0,1.73,-31.85,-32.79,0,*78
1521878748.51,51614,10.63,72016.8,1.73,-31.33,-32.39,0,*76
1521878749.77,51615,10.63,72018.5,1.71,-31.79,-32.85,0,*7C
1521878751.02,51616,10.63,72022.3,1.71,-31.51,-32.57,0,*7A
1521878752.27,51617,10.63,72018.8,1.71,-32.13,-33.31,0,*7F
1521878753.54,51618,10.63,72018.3,1.71,-32.29,-33.31,0,*79
1521878754.77,51619,10.63,72018.5,1.71,-32.13,-33.21,0,*70
1521878756.0,51620,10.63,72016.8,1.69,-32.07,-33.21,0,*76
1521878757.25,51621,10.69,72022.3,1.71,-32.75,-33.83,0,*73
1521878758.47,51622,10.63,72018.3,1.67,-32.51,-33.55,0,*7A
1521878759.67,51623,10.63,72020.5,1.69,-32.13,-33.03,0,*70
1521878760.89,51624,10.63,72022.8,1.69,-32.79,-33.83,0,*73
1521878762.13,51625,10.63,72020.0,1.67,-33.03,-34.19,0,*74
1521878763.39,51626,10.63,72020.8,1.67,-32.69,-33.77,0,*75
1521878764.59,51627,10.63,72018.5,1.65,-32.01,-33.21,0,*7B
1521878765.82,51628,10.63,72022.0,1.65,-31.79,-32.85,0,*77
1521878767.02,51629,10.63,72016.0,1.61,-31.67,-32.69,0,*7F
1521878768.22,51630,10.63,72018.5,1.65,-32.13,-33.03,0,*7E
1521878769.46,51631,10.69,72022.5,1.65,-31.39,-32.45,0,*77
1521878770.71,51632,10.63,72018.8,1.65,-31.39,-32.45,0,*74
1521878771.93,51633,10.63,72016.8,1.67,-32.13,-33.37,0,*78
1521878773.19,51634,10.63,72022.3,1.65,-31.95,-32.85,0,*78
1521878774.45,51635,10.63,72020.5,1.67,-32.45,-33.61,0,*7E
1521878775.71,51636,10.63,72020.8,1.67,-32.69,-33.77,0,*74
1521878776.93,51637,10.63,72016.3,1.61,-32.35,-33.49,0,*77
1521878778.17,51638,10.63,72020.0,1.65,-32.63,-33.73,0,*76
1521878779.43,51639,10.69,72022.3,1.61,-32.75,-34.01,0,*76
1521878780.64,51640,10.63,72022.5,1.61,-32.57,-33.67,0,*7F
1521878781.86,51641,10.63,72018.3,1.65,-32.19,-33.21,0,*72
1521878783.09,51642,10.63,72020.0,1.59,-32.13,-33.21,0,*74
1521878784.37,51643,10.63,72020.0,1.59,-31.51,-32.45,0,*73
1521878785.6,51644,10.69,72020.3,1.61,-31.61,-32.69,0,*72
1521878786.8,51645,10.63,72016.0,1.65,-31.29,-32.35,0,*72
1521878788.01,51646,10.63,72018.8,1.61,-31.45,-32.39,0,*73
1521878789.22,51647,10.63,72018.0,1.61,-31.45,-32.69,0,*77
1521878790.47,51648,10.69,72020.3,1.65,-32.79,-33.77,0,*7E
1521878791.73,51649,10.63,72022.5,1.61,-32.07,-33.27,0,*77
1521878792.96,51650,10.63,72020.0,1.61,-32.39,-33.49,0,*7A
1521878794.19,51651,10.69,72020.5,1.61,-32.39,-33.49,0,*7B
1521878795.42,51652,10.69,72020.5,1.61,-32.01,-32.97,0,*71
1521878796.65,51653,10.63,72018.5,1.61,-31.67,-32.75,0,*7F
1521878797.93,51654,10.69,72022.3,1.59,-31.57,-32.63,0,*77
1521878799.15,51655,10.63,72018.5,1.57,-32.29,-33.37,0,*72
1521878800.38,51656,10.63,72020.5,1.59,-33.21,-34.41,0,*70
1521878801.66,51657,10.63,72018.0,1.59,-32.97,-34.01,0,*79
1521878802.91,51658,10.69,72022.0,1.57,-31.57,-32.63,0,*75
1521878804.16,51659,10.69,72020.8,1.59,-31.33,-32.29,0,*76
1521878805.41,51660,10.63,72022.0,1.59,-31.05,-32.07,0,*75
1521878806.66,51661,10.69,72020.0,1.59,-31.51,-32.57,0,*70
1521878807.94,51662,10.69,72020.3,1.59,-30.61,-31.51,0,*74
1521878809.14,51663,10.63,72020.3,1.61,-31.29,-32.23,0,*75
1521878810.37,51664,10.69,72022.3,1.61,-31.11,-32.35,0,*7E
1521878811.58,51665,10.69,72020.5,1.61,-31.67,-32.69,0,*77
1521878812.81,51666,10.69,72020.3,1.61,-31.39,-32.51,0,*74
1521878814.04,51667,10.63,72020.0,1.61,-31.67,-32.85,0,*77
1521878815.25,51668,10.63,72020.5,1.65,-31.45,-32.51,0,*75
1521878816.5,51669,10.63,72016.0,1.65,-30.95,-32.19,0,*74
1521878817.69,51670,10.69,72020.5,1.65,-32.13,-33.21,0,*7A
1521878818.91,51671,10.69,72022.0,1.61,-31.51,-32.57,0,*7A
1521878820.14,51672,10.69,72026.3,1.61,-32.07,-33.15,0,*7E
1521878821.4,51673,10.63,72018.3,1.65,-31.95,-32.85,0,*7B
1521878822.6,51674,10.63,72018.5,1.61,-31.67,-32.69,0,*77
1521878823.86,51675,10.63,72016.3,1.61,-32.19,-33.27,0,*77
1521878825.09,51676,10.69,72018.8,1.61,-32.39,-33.77,0,*73
1521878826.31,51677,10.69,72020.0,1.61,-32.23,-33.31,0,*7B
1521878827.52,51678,10.69,72022.5,1.61,-31.33,-32.39,0,*7F
1521878828.78,51679,10.69,72020.0,1.61,-31.61,-32.75,0,*71
1521878830.01,51680,10.69,72022.5,1.61,-31.67,-32.75,0,*71
1521878831.24,51681,10.69,72022.5,1.61,-32.39,-33.49,0,*76
1521878832.47,51682,10.69,72020.3,1.61,-31.91,-32.91,0,*70
1521878833.73,51683,10.69,72020.3,1.59,-31.79,-32.79,0,*7A
1521878835.01,51684,10.69,72020.0,1.59,-32.45,-33.49,0,*73
1521878836.28,51685,10.69,72020.3,1.59,-31.91,-32.97,0,*7A
1521878837.51,51686,10.69,72020.3,1.57,-31.67,-32.75,0,*72
1521878838.77,51687,10.63,72018.0,1.59,-32.07,-33.15,0,*7F
1521878840.0,51688,10.69,72020.5,1.57,-31.73,-32.91,0,*73
1521878841.25,51689,10.69,72018.8,1.59,-31.57,-32.57,0,*70
1521878842.51,51690,10.69,72022.8,1.59,-31.23,-32.23,0,*78
1521878843.74,51691,10.69,72020.8,1.59,-31.79,-32.91,0,*7F
1521878844.97,51692,10.69,72022.8,1.59,-32.13,-33.21,0,*79
1521878846.23,51693,10.69,72020.3,1.59,-31.95,-33.03,0,*75
1521878847.46,51694,10.69,72020.5,1.59,-32.13,-33.21,0,*7F
1521878848.74,51695,10.69,72022.5,1.59,-31.73,-32.63,0,*7C
1521878849.97,51696,10.69,72018.5,1.57,-31.91,-32.91,0,*70
1521878851.22,51697,10.69,72018.5,1.57,-31.57,-32.63,0,*76
1521878852.47,51698,10.69,72020.8,1.57,-31.95,-32.97,0,*7C
1521878853.76,51699,10.69,72022.5,1.59,-31.73,-32.75,0,*77
1521878855.05,51700,10.69,72020.5,1.59,-31.73,-32.79,0,*7A
1521878856.3,51701,10.69,72020.5,1.59,-31.79,-32.79,0,*71
1521878857.59,51702,10.69,72020.3,1.59,-31.73,-32.79,0,*78
1521878858.82,51703,10.69,72018.3,1.59,-31.33,-32.39,0,*79
1521878860.07,51704,10.69,72020.5,1.57,-31.23,-32.29,0,*70
1521878861.36,51705,10.69,72022.8,1.59,-31.73,-32.79,0,*7F
1521878862.59,51706,10.69,72020.8,1.59,-30.83,-31.67,0,*7E
1521878863.87,51707,10.69,72022.0,1.59,-31.57,-32.79,0,*7B
1521878865.13,51708,10.69,72020.3,1.59,-31.95,-33.03,0,*76
1521878866.41,51709,10.69,72020.8,1.59,-31.57,-32.45,0,*7A
1521878867.7,51710,10.69,72022.8,1.59,-31.57,-32.63,0,*76
1521878868.95,51711,10.69,72022.8,1.59,-31.67,-32.75,0,*73
1521878870.21,51712,10.69,72020.0,1.59,-31.91,-33.03,0,*79
1521878871.46,51713,10.69,72020.8,1.57,-31.39,-32.45,0,*77
1521878872.74,51714,10.69,72020.5,1.59,-31.73,-32.79,0,*7F
1521878873.97,51715,10.69,72022.0,1.57,-32.29,-33.37,0,*77
1521878875.22,51716,10.69,72020.0,1.59,-31.67,-32.75,0,*74
1521878876.45,51717,10.69,72024.5,1.57,-32.07,-33.15,0,*79
1521878877.7,51718,10.69,72026.3,1.59,-32.23,-33.31,0,*78
1521878878.93,51719,10.69,72020.5,1.57,-32.23,-33.31,0,*77
1521878880.16,51720,10.69,72020.5,1.57,-31.95,-33.03,0,*72
1521878881.42,51721,10.69,72022.0,1.55,-32.01,-33.09,0,*75
1521878882.64,51722,10.69,72018.8,1.57,-31.67,-32.75,0,*7D
1521878883.84,51723,10.69,72020.8,1.57,-31.67,-32.57,0,*7C
1521878885.08,51724,10.69,72022.3,1.57,-32.29,-33.31,0,*73
1521878886.31,51725,10.69,72020.3,1.57,-31.67,-32.75,0,*7A
1521878887.54,51726,10.69,72022.5,1.53,-31.85,-33.03,0,*71
1521878888.82,51727,10.69,72026.5,1.55,-31.95,-32.97,0,*7B
1521878890.11,51728,10.69,72020.8,1.55,-31.85,-32.79,0,*75
1521878891.36,51729,10.69,72018.5,1.57,-32.29,-33.49,0,*71
1521878892.58,51730,10.69,72020.5,1.55,-32.51,-33.55,0,*79
1521878893.79,51731,10.69,72026.0,1.53,-32.13,-33.21,0,*7B
1521878895.05,51732,10.69,72018.8,1.55,-31.29,-32.19,0,*7E
1521878896.28,51733,10.69,72020.5,1.53,-31.79,-32.85,0,*79
1521878897.48,51734,10.69,72020.8,1.53,-32.51,-33.55,0,*7B
1521878898.77,51735,10.69,72020.8,1.55,-32.19,-33.27,0,*75
1521878900.0,51736,10.69,72020.5,1.53,-31.95,-33.03,0,*71
1521878901.26,51737,10.69,72022.3,1.55,-32.01,-32.97,0,*74
1521878902.49,51738,10.69,72020.3,1.53,-32.13,-33.27,0,*74
1521878903.72,51739,10.69,72020.8,1.53,-31.73,-32.69,0,*7B
1521878904.97,51740,10.69,72020.3,1.53,-31.39,-32.63,0,*71
1521878906.26,51741,10.69,72024.8,1.55,-31.85,-32.79,0,*7A
1521878907.5,51742,10.69,72020.5,1.53,-31.61,-32.69,0,*74